Hourly Data Report for October 14, 2015

All times are specified in Local Standard Time (LST). Add 1 hour to adjust for Daylight Saving Time where and when it is observed.

PANGNIRTUNG
NUNAVUT

66°08'36.300" N
65°42'40.500" W
22.60 m
2403049
71826
WXP

Download Data

Hourly Data (October 2015)
Hourly Data Report for October 14, 2015
Temp Definition
°C
Dew Point Temp Definition
°C
Rel Hum Definition
%
Wind Dir Definition
10's deg

Wind Spd Definition
km/h
Visibility Definition
km
Stn Press Definition
kPa
Hmdx Definition


Wind Chill Definition


Weather Definition


TIME
00:00 -3.3 -4.5 91 0 1   99.25   -4 LegendNANA
01:00 -3.2 -3.9 95 25 5   99.24   -5 LegendNANA
02:00 -3.1 -4.2 92   0   99.22     LegendNANA
03:00 -3.1 -4.3 92 20 2   99.18   -4 LegendNANA
04:00 -3.6 -4.4 94 24 8   99.15   -7 LegendNANA
05:00 -3.6 -5.2 88 23 8   99.14   -7 LegendNANA
06:00 -3.9 -5.6 88 23 5   99.15   -6 LegendNANA
07:00 -3.9 -5.6 88 23 10   99.13   -8 LegendNANA
08:00 -4.1 -5.7 89 24 15   99.10   -9 LegendNANA
09:00 -4.2 -6.0 87 24 18   99.08   -10 LegendNANA
10:00 -3.9 -6.2 84 25 18   99.08   -10 LegendNANA
11:00 -4.2 -7.0 81 24 23   99.09   -11 LegendNANA
12:00 -3.9 -6.8 80 24 21   99.08   -10 LegendNANA
13:00 -4.3 -6.8 83 24 23   99.07   -11 LegendNANA
14:00 -4.4 -7.6 78 27 20   99.07   -11 LegendNANA
15:00 -4.6 -7.4 81 26 11   99.08   -9 LegendNANA
16:00 -5.0 -7.9 80 25 11   99.10   -10 LegendNANA
17:00 -4.5 -8.7 73 25 12   99.09   -9 LegendNANA
18:00 -5.2 -8.1 81 28 14   99.08   -11 LegendNANA
19:00 -6.3 -8.4 85 26 11   99.08   -11 LegendNANA
20:00 -5.4 -7.6 84 28 15   99.08   -11 LegendNANA
21:00 -5.5 -8.3 80 25 11   99.04   -10 LegendNANA
22:00 -5.5 -8.5 79 28 17   99.02   -12 LegendNANA
23:00 -5.5 -9.1 76 29 11   98.97   -10 LegendNANA

Notes on Data Quality.

Legend

  • E = Estimated
  • M = Missing
  • NA = Not Available
  • ‡ = Partner data that is not subject to review by the National Climate Archives
Date modified: